Location: Buckhorn Peak
(37.6641°N, 120.1241°W)
Time: 01:32:55
(UTC+00:00)

BlueWalker 3 - Pass Details

Date: 17 December 2025
Orbit: 452 x 463 km, 53.2° (Epoch: 13 January)

Event Time Altitude Azimuth Distance (km) Brightness Sun altitude
Rises 14:06:35 0° 180° (S) 2,442 5.7 -12.2°
Reaches altitude 10° 14:09:50 10° 147° (SSE) 1,579 5.3 -11.6°
Maximum altitude 14:11:13 12° 125° (SE) 1,470 5.6 -11.3°
Drops below altitude 10° 14:12:36 10° 102° (ESE) 1,586 6.0 -11.1°
Sets 14:15:53 0° 69° (ENE) 2,468 6.3 -10.5°
